Location: Saint Louis
(38.6272°N, 90.1978°W)
Time: 15:55:45
(UTC-05:00)

ISS - Pass Details

Date: 10 August 2013
Orbit: 400 x 410 km, 51.6° (Epoch: 25 September)

Event Time Altitude Azimuth Distance (km) Brightness Sun altitude
Rises 21:32:50 0° 315° (NW) 2,346 2.2 -16.6°
Reaches altitude 10° 21:35:09 10° 328° (NNW) 1,470 0.6 -17.0°
Maximum altitude 21:38:01 27° 29° (NNE) 807 -1.8 -17.4°
Enters shadow 21:38:49 24° 56° (NE) 875 -1.8 -17.6°
